Albuquerque, NM

4:59 AM MDT on October 17, 2019 (GMT -0600)
Albuquerque International Sunport

Weather History for KABQ - September, 2019

Change the Weather History Date:

Friday, September 20, 2019

  Actual Average Record
Temperature  
Mean Temperature 74 °F 68 °F  
Max Temperature 85 °F 79 °F 93 °F (1956)
Min Temperature 62 °F 56 °F 34 °F (1912)
Degree Days  
Heating Degree Days 0 1  
Month to date heating degree days 0 6  
Since 1 July heating degree days 0 6  
Cooling Degree Days 9 4  
Month to date cooling degree days 220 131  
Year to date cooling degree days 1484 1288  
Growing Degree Days 24 (Base 50)    
Moisture  
Dew Point 40 °F    
Average Humidity 39    
Maximum Humidity 65    
Minimum Humidity 13    
Precipitation  
Precipitation 0.00 in 0.03 in 0.95 in (1974)
Month to date precipitation 0.44 0.71  
Year to date precipitation 5.89 6.99  
Snow  
Snow 0.00 in - - ()
Month to date snowfall 0.0  
Since 1 July snowfall 0.0  
Since 1 September snowfall 0.0  
Snow Depth 0.00 in    
Sea Level Pressure  
Sea Level Pressure 29.78 in    
Wind  
Wind Speed 8 mph (SSW)    
Max Wind Speed 24 mph    
Max Gust Speed 31 mph    
Visibility 10 miles    
Events      
T = Trace of Precipitation, MM = Missing Value Source: NWS Daily Summary

Daily Weather History Graph

Daily Weather History Graph

Search for Another Location

Airport or City:

Astronomy

Sep. 20, 2019 Rise Set
Actual Time 6:52 AM MDT 7:06 PM MDT
Civil Twilight 6:27 AM MDT 7:31 PM MDT
Nautical Twilight 5:57 AM MDT 8:01 PM MDT
Astronomical Twilight 5:27 AM MDT 8:31 PM MDT
Moon 11:11 PM MDT (9/20) 12:47 PM MDT (9/20)
Length of Visible Light 13h 04m
Length of Day
12h 13m
Waning Gibbous, 64% of the Moon is Illuminated
Sep 20
Waning Gibbous
Sep 21
Last Quarter
Sep 28
New
Oct 5
First Quarter
Oct 13
Full

Hourly Weather History & Observations

Time (MDT) Temp. Dew Point Humidity Pressure Visibility Wind Dir Wind Speed Gust Speed Precip Events Conditions
12:52 AM 66.9 °F 46.9 °F 49% 29.76 in 10.0 mi ESE 4.6 mph - N/A   Scattered Clouds
1:52 AM 68.0 °F 46.9 °F 47% 29.77 in 10.0 mi SSE 5.8 mph - N/A   Scattered Clouds
2:52 AM 64.0 °F 46.9 °F 54% 29.78 in 10.0 mi SE 3.5 mph - N/A   Partly Cloudy
3:52 AM 64.9 °F 46.0 °F 50% 29.77 in 10.0 mi SE 3.5 mph - N/A   Scattered Clouds
4:52 AM 64.0 °F 46.9 °F 54% 29.78 in 10.0 mi Calm Calm - N/A   Scattered Clouds
5:52 AM 64.9 °F 48.0 °F 54% 29.78 in 10.0 mi Calm Calm - N/A   Partly Cloudy
6:52 AM 63.0 °F 50.0 °F 63% 29.83 in 10.0 mi NE 4.6 mph - N/A   Partly Cloudy
7:52 AM 64.9 °F 50.0 °F 58% 29.85 in 10.0 mi North 4.6 mph - N/A   Partly Cloudy
8:52 AM 69.1 °F 50.0 °F 51% 29.85 in 10.0 mi Calm Calm - N/A   Partly Cloudy
9:52 AM 70.0 °F 51.1 °F 51% 29.87 in 10.0 mi Variable 5.8 mph - N/A   Partly Cloudy
10:52 AM 72.0 °F 52.0 °F 49% 29.86 in 10.0 mi SW 5.8 mph - N/A   Partly Cloudy
11:52 AM 75.9 °F 48.0 °F 37% 29.83 in 10.0 mi SSW 6.9 mph 19.6 mph N/A   Partly Cloudy
12:52 PM 79.0 °F 44.1 °F 29% 29.79 in 10.0 mi South 12.7 mph - N/A   Partly Cloudy
1:52 PM 81.0 °F 43.0 °F 26% 29.75 in 10.0 mi SSW 13.8 mph - N/A   Scattered Clouds
2:52 PM 82.9 °F 34.0 °F 17% 29.73 in 10.0 mi SSW 8.1 mph 26.5 mph N/A   Scattered Clouds
3:52 PM 84.0 °F 28.0 °F 13% 29.71 in 10.0 mi SSW 11.5 mph 21.9 mph N/A   Scattered Clouds
4:52 PM 84.0 °F 30.9 °F 15% 29.70 in 10.0 mi WSW 13.8 mph - N/A   Scattered Clouds
5:52 PM 84.0 °F 30.0 °F 14% 29.69 in 10.0 mi WSW 17.3 mph 21.9 mph N/A   Scattered Clouds
6:52 PM 81.0 °F 30.9 °F 16% 29.71 in 10.0 mi WSW 11.5 mph - N/A   Partly Cloudy
7:52 PM 79.0 °F 30.9 °F 17% 29.73 in 10.0 mi SSW 10.4 mph - N/A   Partly Cloudy
8:52 PM 77.0 °F 28.9 °F 17% 29.75 in 10.0 mi SSW 12.7 mph - N/A   Partly Cloudy
9:52 PM 73.9 °F 30.0 °F 20% 29.78 in 10.0 mi SW 9.2 mph - N/A   Partly Cloudy
10:52 PM 73.0 °F 30.0 °F 20% 29.80 in 10.0 mi SW 3.5 mph - N/A   Clear
11:52 PM 66.0 °F 32.0 °F 28% 29.83 in 10.0 mi SSE 9.2 mph - N/A   Clear